Location: Middelsbur
(53.6609°N, 7.5020°E)
Time: 23:48:01
(UTC+00:00)

Cosmos 1812 - Pass Details

Date: 06 July 2020
Orbit: 516 x 522 km, 82.5° (Epoch: 14 August)

Event Time Altitude Azimuth Distance (km) Brightness Sun altitude
Rises 23:43:15 0° 351° (N) 2,665 8.1 -13.8°
Reaches altitude 10° 23:45:26 10° 357° (N) 1,771 6.9 -13.7°
Maximum altitude 23:49:14 52° 74° (ENE) 656 3.3 -13.7°
Enters shadow 23:51:57 18° 147° (SSE) 1,340 4.3 -13.7°
